Погода в Быхове

Беларусь     53°31′05″N   30°14′25″E
темп.,
°C
ветер,
м/с
пор.,
м/с
влажн.,
%
обл.,
%
осадки,
мм/ч
давл.,
гПа
погр.,
м
23 сентября, чт
чт2300:00+4с2495100 0.4 1014837
03:00+5сз2387100 0.6 1014225
06:00+4ссз3396100 0.6 1013715
09:00+4сз2297100 1.5 1013567
12:00+4сз2290100 0.2 1014343
15:00+6з1280100 0.3 1013564
18:00+5ююз2389100 0.1 1011202
21:00+5ю3693100 0.1 1010270
24 сентября, пт
пт2400:00+4ю51097100 0.0 1006344
03:00+5ююв71595100 0.8 1001549
06:00+6ююв81697100 5.2 995556
09:00+9з61293100 13.0 992785
12:00+10зюз7107596 0.3 9941305
15:00+8з51089100 1.1 9941078
18:00+7зсз5990100 1.1 995580
21:00+6зсз379267 1.1 998146
25 сентября, сб
сб2500:00+8сз3897100 0.9 1000380
03:00+8зсз61294100 2.1 1002774
06:00+8зсз51191100 0.1 1004530
09:00+8з4991100 0.1 1006468
12:00+11з577598 0.0 1007808
15:00+9юз4894100 0.4 1008383
18:00+10юз41197100 2.1 1007569
21:00+11зюз4109695 2.3 1008420
26 сентября, вс
вс2600:00+10зсз5129527 0.1 1009402
03:00+10сз5129592 0.1 1011655
06:00+8ссз5119491 0.1 1014467
09:00+9сз5108758 0.1 1016727
12:00+12ссз796942 0.1 10171199
15:00+13ссз6859100 0.1 10181623
18:00+11ссз51068100 0.0 1020616
21:00+9ссз4977100 0.1 1021416
27 сентября, пн
пн2700:00+9с3783100 0.1 1022357
03:00+6с37955 0.1 1023164
06:00+5с369728 0.0 1024152
09:00+7ссв3685100 0.0 1024572
12:00+10св4576100 0.0 1025645
15:00+11св3468100 0.0 1025954
18:00+11св2472100 0.0 1025131
21:00+9ссв2579100 0.0 1026174